Hourly Data Report for February 24, 2017

All times are specified in Local Standard Time (LST). Add 1 hour to adjust for Daylight Saving Time where and when it is observed.

TORONTO CITY
ONTARIO

43°40'00.000" N
79°24'00.000" W
112.50 m
6158355
71508
XTO

Download Data

Hourly Data (February 2017)
Hourly Data Report for February 24, 2017
TIME Temp Definition
°C
Dew Point Definition
°C
Rel Hum Definition
%
Wind Dir Definition
10's deg

Wind Spd Definition
km/h
Visibility Definition
km
Stn Press Definition
kPa
Hmdx Definition


Wind Chill Definition


Weather Definition


00:00 5.8 1.9 76 LegendMM LegendMM   99.82     LegendNANA
01:00 5.2 1.6 78 LegendMM LegendMM   99.87     LegendNANA
02:00 5.1 1.3 76 LegendMM LegendMM   99.89     LegendNANA
03:00 5.0 1.4 78 LegendMM LegendMM   99.80     LegendNANA
04:00 4.7 1.7 80 LegendMM LegendMM   99.76     LegendNANA
05:00 4.9 1.8 81 LegendMM LegendMM   99.67     LegendNANA
06:00 5.2 2.4 82 LegendMM LegendMM   99.63     LegendNANA
07:00 5.3 2.5 83 LegendMM LegendMM   99.50     LegendNANA
08:00 4.0 2.6 91 LegendMM LegendMM   99.50     LegendNANA
09:00 3.6 2.4 92 LegendMM LegendMM   99.53     LegendNANA
10:00 3.4 2.3 92 LegendMM LegendMM   99.38     LegendNANA
11:00 3.4 2.2 92 LegendMM LegendMM   99.34     LegendNANA
12:00 4.0 2.6 90 LegendMM LegendMM   99.28     LegendNANA
13:00 4.1 2.5 89 LegendMM LegendMM   99.20     LegendNANA
14:00 4.4 2.8 90 LegendMM LegendMM   99.12     LegendNANA
15:00 4.5 3.1 91 LegendMM LegendMM   99.11     LegendNANA
16:00 4.6 3.1 90 LegendMM LegendMM   99.14     LegendNANA
17:00 4.9 3.7 92 LegendMM LegendMM   98.98     LegendNANA
18:00 4.8 3.6 92 LegendMM LegendMM   99.12     LegendNANA
19:00 4.7 3.8 94 LegendMM LegendMM   99.09     LegendNANA
20:00 4.1 3.2 94 LegendMM LegendMM   98.86     LegendNANA
21:00 3.5 2.9 96 LegendMM LegendMM   98.92     LegendNANA
22:00 3.4 2.8 96 LegendMM LegendMM   98.77     LegendNANA
23:00 3.2 2.8 97 LegendMM LegendMM   98.75     LegendNANA

Notes on Data Quality.

Legend

  • E = Estimated
  • M = Missing
  • NA = Not Available
Date modified: